Location: Beadle
(51.4667°N, 109.0000°W)
Time: 04:19:20
(UTC+00:00)

Altair - Pass Details

Date: 31 May 2022
Orbit: 1501 x 1682 km, 47.2° (Epoch: 30 June)

Event Time Altitude Azimuth Distance (km) Brightness Sun altitude
Rises 03:09:44 0° 281° (W) 4,904 11.5 0.7°
Reaches altitude 10° 03:12:56 10° 277° (W) 3,929 10.8 0.3°
Maximum altitude 03:22:41 56° 204° (SSW) 1,952 8.0 -1.0°
Drops below altitude 10° 03:32:26 10° 130° (SE) 3,924 9.0 -2.1°
Enters shadow 03:34:45 - 127° (SE) 4,625 9.3 -2.4°
Sets 03:35:38 0° 126° (SE) 4,897 - -2.5°
